Tracking 23757 objects as of 25-Oct-2021
HD Live streaming from Space Station
objects crossing your sky now

CZ-2D DEB

Track CZ-2D DEB now!
10-day predictions


NORAD ID: 38301
Int'l Code: 2010-027F
Perigee: 547.4 km
Apogee: 789.6 km
Inclination: 97.8 °
Period: 98.0 minutes
Semi major axis: 7039 km
RCS: 0.0012 m2 (small)
Launch date: June 15, 2010
Source: People's Republic of China (PRC)
Launch site: Jiuquan Satellite Launch Center, China (JSC)

Note: This is SATELLITE DEBRIS
aabbcc
Your satellite tracking list
Your tracking list is empty




NASA's NSSDC Master Catalog

Two Line Element Set (TLE):
1 38301U 10027F   21297.63360564  .00001575  00000-0  21683-3 0  9990
2 38301  97.8157 181.3648 0172006  56.5460   1.4957 14.69914759595603
Source of the keplerian elements: AFSPC